[[{"header":{"parameterUnit":"m.s-1","parameterCategory":1,"la1":30.2992,"la2":30.254,"lo1":-89.0895,"lo2":-89.0443,"dy":0.0025,"dx":0.0025,"nx":19,"ny":19,"refTime":"2026-05-14T09:00:00:Z","depth":0,"parameterNumber":2,"parameterNumberName":"U-component_of_WINDS"},"data":[0,0,0,0.4697,0.4697,0.4711,0.4711,0.4728,0.4728,0,0,0,0,0,0,0,0,0,0,0,0.4691,0.4691,0.4697,0.4697,0.4711,0.4711,0.4728,0.4728,0,0,0,0,0,0,0,0,0,0,0,0.4691,0.4691,0.4691,0.4697,0.4711,0.4711,0.4728,0.4718,0,0,0,0,0,0,0,0,0,0,0.4705,0.4697,0.4691,0.4691,0.4697,0.4711,0.4711,0.4717,0.4718,0.4721,0,0.4721,0,0.4725,0.4729,0.4729,0,0,0,0.4698,0.4696,0.4702,0.4691,0.4697,0.4711,0.4705,0.4718,0.4719,0.4722,0.4722,0.4722,0.4725,0.4729,0.4729,0.4734,0.4734,0,0,0.4698,0.4693,0.4701,0.4702,0.4699,0.4705,0.4705,0.4719,0.4718,0.4722,0.4723,0.4725,0.4729,0.4729,0.4735,0.4734,0,0,0,0.4694,0.4692,0.4697,0.4702,0.4704,0.4705,0.4706,0.4718,0.472,0.4723,0.4725,0.4729,0.4729,0.4735,0.4734,0.4727,0,0,0,0.4694,0.469,0.4697,0.4694,0.4704,0.4711,0.4705,0.4719,0.472,0.4725,0.4729,0.4729,0.4735,0.4735,0.4727,0.4725,0,0,0,0.4691,0.469,0.4691,0.4694,0.4699,0.4711,0.4713,0.4719,0.4722,0.4729,0.4729,0.4735,0.4735,0.4728,0.4725,0.4724,0,0,0,0.4686,0.4685,0.4691,0.4691,0.4699,0.4706,0.4713,0.4719,0.4724,0.4729,0.4735,0.4734,0.4728,0.4725,0.4725,0.4723,0.4722,0,0,0.4682,0.4685,0.4685,0.4691,0.4695,0.4704,0.4708,0.4717,0.4723,0.4731,0.4731,0.4727,0.4725,0.4724,0.4716,0.4715,0,0,0,0.4682,0.4683,0.4685,0.4689,0.4696,0.4702,0.4711,0.4715,0.4721,0.4726,0.4727,0.4726,0.4726,0.4725,0.4724,0.4725,0.4734,0.4734,0.4734,0.4671,0.4677,0.4679,0.4687,0.4691,0.47,0.4704,0.4711,0.4717,0.4717,0.472,0.4714,0.4713,0.4712,0.4712,0.4719,0.4719,0.4719,0.4719,0.4666,0.4668,0.4675,0.4679,0.4686,0.469,0.4699,0.4703,0.4708,0.4713,0.4713,0.4717,0.4711,0.4711,0.4719,0.4719,0.4719,0.4719,0.4719,0.4659,0.4661,0.4665,0.4671,0.4675,0.4684,0.4688,0.4695,0.4702,0.4702,0.4705,0.4705,0.4706,0.4703,0.4703,0.4703,0.4703,0.4703,0.4703,0.465,0.4655,0.4657,0.4664,0.4667,0.4673,0.4682,0.4686,0.4692,0.4697,0.4697,0.4703,0.4709,0.471,0.4702,0.4702,0.4702,0.4702,0.4702,0.4643,0.4646,0.4649,0.4652,0.4661,0.4665,0.4673,0.4681,0.4685,0.4687,0.4693,0.4696,0.4699,0.47,0.4701,0.4691,0.4691,0.4691,0.4691,0.4637,0.4639,0.4644,0.4649,0.4654,0.4662,0.4666,0.4674,0.4683,0.4686,0.4688,0.469,0.4691,0.4694,0.4695,0.4696,0.4685,0.4685,0.4685,0.4633,0.4636,0.4638,0.4645,0.4652,0.4659,0.4663,0.4669,0.468,0.4685,0.4689,0.4689,0.4692,0.4693,0.4698,0.47,0.4702,0,0]},{"header":{"parameterUnit":"m.s-1","parameterCategory":1,"la1":30.2992,"la2":30.254,"lo1":-89.0895,"lo2":-89.0443,"dy":0.0025,"dx":0.0025,"nx":19,"ny":19,"refTime":"2026-05-14T09:00:00:Z","depth":0,"parameterNumber":3,"parameterNumberName":"V-component_of_WINDS"},"data":[0,0,0,-2.3125,-2.3128,-2.3251,-2.3251,-2.3398,-2.3399,0,0,0,0,0,0,0,0,0,0,0,-2.3083,-2.3084,-2.3125,-2.3128,-2.3251,-2.3251,-2.3398,-2.3399,0,0,0,0,0,0,0,0,0,0,0,-2.3083,-2.3084,-2.3085,-2.3128,-2.325,-2.3251,-2.3398,-2.3308,0,0,0,0,0,0,0,0,0,0,-2.3191,-2.3147,-2.3084,-2.3085,-2.3129,-2.325,-2.3251,-2.3304,-2.3314,-2.3339,0,-2.336,0,-2.3382,-2.3409,-2.3409,0,0,0,-2.3131,-2.3139,-2.3177,-2.3085,-2.313,-2.325,-2.3196,-2.331,-2.3321,-2.3351,-2.3362,-2.3368,-2.3384,-2.341,-2.341,-2.3543,-2.3544,0,0,-2.3125,-2.3102,-2.3169,-2.3184,-2.3165,-2.3192,-2.32,-2.3316,-2.3326,-2.3363,-2.3371,-2.3387,-2.3411,-2.3412,-2.3543,-2.3544,0,0,0,-2.3103,-2.3097,-2.3133,-2.3178,-2.3201,-2.3196,-2.3205,-2.3321,-2.3334,-2.3373,-2.3389,-2.3411,-2.3413,-2.3543,-2.3543,-2.3544,0,0,0,-2.3099,-2.3085,-2.313,-2.3117,-2.3198,-2.3262,-2.3206,-2.3326,-2.334,-2.3388,-2.3411,-2.3414,-2.3542,-2.3543,-2.3543,-2.3547,0,0,0,-2.3077,-2.3082,-2.3098,-2.3116,-2.3168,-2.3261,-2.3282,-2.333,-2.335,-2.3409,-2.3415,-2.3542,-2.3543,-2.3542,-2.3546,-2.3576,0,0,0,-2.3047,-2.3096,-2.3098,-2.3159,-2.3167,-2.3261,-2.3281,-2.3352,-2.3404,-2.3412,-2.3542,-2.3543,-2.3542,-2.3545,-2.3575,-2.3596,-2.3604,0,0,-2.3096,-2.3101,-2.3139,-2.3144,-2.3233,-2.3244,-2.3333,-2.3401,-2.3426,-2.3503,-2.3506,-2.3543,-2.3546,-2.3576,-2.3654,-2.3659,0,0,0,-2.3147,-2.3174,-2.3202,-2.3251,-2.3305,-2.3351,-2.3408,-2.3434,-2.35,-2.3461,-2.3564,-2.3566,-2.3584,-2.3595,-2.36,-2.3617,-2.3548,-2.3548,-2.3548,-2.3183,-2.3215,-2.328,-2.3327,-2.3374,-2.3433,-2.3474,-2.3518,-2.3535,-2.3559,-2.3581,-2.3625,-2.3637,-2.3641,-2.3658,-2.3596,-2.3596,-2.3596,-2.3596,-2.3257,-2.3299,-2.3324,-2.3395,-2.3429,-2.3489,-2.3548,-2.3559,-2.3619,-2.361,-2.3628,-2.3614,-2.3646,-2.3663,-2.3597,-2.3596,-2.3596,-2.3596,-2.3596,-2.3283,-2.3309,-2.334,-2.3415,-2.3469,-2.3516,-2.3573,-2.3602,-2.3629,-2.3646,-2.3673,-2.3673,-2.3676,-2.3658,-2.3658,-2.3658,-2.3658,-2.3658,-2.3658,-2.3296,-2.3332,-2.3377,-2.3441,-2.3477,-2.3528,-2.3589,-2.3625,-2.3672,-2.3688,-2.3688,-2.3703,-2.3644,-2.3628,-2.3661,-2.366,-2.366,-2.366,-2.366,-2.3357,-2.3348,-2.3418,-2.3455,-2.3532,-2.3584,-2.3621,-2.3692,-2.3726,-2.3753,-2.3766,-2.3718,-2.3724,-2.3721,-2.3707,-2.3759,-2.3759,-2.3759,-2.3759,-2.3377,-2.3385,-2.3464,-2.352,-2.3578,-2.3619,-2.3697,-2.3747,-2.3796,-2.3819,-2.3816,-2.3801,-2.3797,-2.3806,-2.38,-2.3788,-2.386,-2.386,-2.386,-2.3416,-2.3431,-2.3492,-2.3541,-2.3605,-2.3659,-2.3733,-2.3796,-2.385,-2.3864,-2.3837,-2.3833,-2.381,-2.3801,-2.3812,-2.3803,-2.3781,0,0]}]]